User: anonymous
Location: Unspecified
(0.0000°N, 0.0000°E)
Time: 19:45:06
(UTC+00:00)
Language:

OPTUS D3 - Orbit

View from above orbital plane
View from above orbital plane
View from above satellite
View from above satellite

Ground track
Ground track

The orbit data is extracted from the following two-line orbital elements,

1 35756U 09044B   14259.46401280 -.00000175  00000-0  00000+0 0  1567
2 35756 000.0479 336.4564 0002584 177.1617 164.7512 01.00270737 18594
Epoch (UTC): 16 September 2014 11:08:10
Eccentricity: 0.0002584
inclination: 0.0479°
perigee height: 35775 km
apogee height: 35797 km
right ascension of ascending node: 336.4564°
argument of perigee: 177.1617°
revolutions per day: 1.00270737
mean anomaly at epoch: 164.7512°
orbit number at epoch: 1859

The dashed part of the orbit path shows where the satellite is in the earth's shadow,  

DLR